sat.trackr.live / text

‹ back to catalog

STARLINK-36206

NORAD 66930 · 2025-286F

PAYLOAD ACTIVE UNKNOWN

§ Identity

Operator
Country
US
Launch date
2025-12-07
Launch site
AFWTR
Launch vehicle
Mass (kg)
RCS (m²)

Purposes: comms

External: N2YO · Heavens-Above · Gunter

§ Orbital elements

Epoch: 2026-05-25T00:20:03.951168Z

Period
93.85 min
Inclination
53.1605°
Eccentricity
0.0001096
Mean motion
15.34428422 rev/d
Perigee alt
461.9 km
Apogee alt
463.4 km
Semi-major
6,840.8 km
B*
6.7603e-4
RAAN
3.8374°
Arg perigee
83.3922°
Mean anomaly
276.7205°
Rev number
2,709

§ Raw data

STARLINK-362061 66930U 25286F   26145.01393462  .00022554  00000+0  67603-3 0  99952 66930  53.1605   3.8374 0001096  83.3922 276.7205 15.34428422 27096

JSON: /api/v1/satellites/66930 · /tle

For live sub-satellite position, see the globe view (requires WebGL).

§ Visibility from observer

Set your observer location to see the next 7 days of passes ≥ 10°. The values pass through the URL so the page stays shareable.

No JS? Fill the form by hand. The geolocation button needs JavaScript.